Vorticity
7 6 9 7 7 10 5 3 3 5 9 12 7 7 7 9 7 7 9 11 11 7 9 10 9 8 11 12 5 5 0 -2 -0 3 1 -1 0 2 2 2 3 2 1 2 4
7 10 7 8 11 4 3 4 4 6 13 8 5 4 7 8 11 5 1 6 9 7 3 7 7 5 4 -2 1 2 5 3 3 0 1 5 4 5 3 2 2 3 3 5 3
12 9 11 7 4 3 3 3 5 9 12 5 5 4 1 5 5 7 11 6 7 4 2 2 4 7 2 2 -0 -2 1 2 2 3 4 4 3 4 5 4 3 2 3 6 4
11 8 5 4 3 3 3 4 6 11 10 4 6 7 4 1 4 4 5 7 4 7 1 6 1 2 2 2 2 3 2 3 3 4 2 1 4 4 3 1 0 4 5 5 3
5 4 4 3 3 3 4 6 8 15 10 5 7 7 7 3 3 3 3 2 4 4 2 1 1 2 1 4 3 3 5 4 4 4 6 5 6 2 4 3 8 7 4 5 5
5 5 3 3 3 4 6 8 14 12 9 6 6 3 2 2 2 1 2 1 2 3 3 4 5 4 3 4 4 3 4 5 6 4 3 3 5 6 6 7 8 2 4 3 3
6 6 5 4 4 6 8 15 11 10 8 4 5 4 -2 9 1 1 3 3 3 2 2 2 3 2 5 5 4 2 4 7 4 5 3 6 5 4 5 3 4 5 4 4 4
6 6 5 4 6 10 9 13 9 10 9 6 4 9 2 2 3 2 4 4 4 4 5 6 5 3 5 4 5 7 5 3 5 5 6 6 4 5 5 6 4 4 4 3 5
6 8 5 5 8 6 8 9 9 9 5 7 8 1 7 6 3 2 2 4 5 4 5 4 5 4 5 5 6 7 9 9 8 8 4 6 7 5 5 4 4 4 2 3 5
6 9 6 7 3 4 9 10 7 8 13 6 7 4 5 7 10 11 11 10 13 13 12 11 10 11 11 9 7 9 9 9 10 8 7 6 4 5 7 1 4 2 5 7 2
8 8 6 7 4 5 5 6 8 9 12 11 10 5 9 11 13 10 6 6 7 7 7 6 9 9 7 8 9 9 7 10 10 6 5 6 7 6 3 5 6 8 6 2 8
8 8 6 6 4 3 2 3 4 2 8 7 8 9 9 8 6 6 7 7 9 9 8 9 9 9 9 9 8 8 10 10 6 7 6 7 10 4 8 7 8 6 3 7 5
9 8 5 7 5 4 4 5 5 5 7 9 10 10 10 6 7 8 8 7 6 7 7 8 8 10 11 10 9 8 9 7 8 6 6 4 9 6 5 3 4 3 4 7 7
8 9 5 7 4 7 4 4 7 7 9 7 8 9 10 7 5 7 5 5 5 7 7 5 9 11 10 10 8 9 8 8 5 8 4 7 7 3 2 3 2 2 3 6 6
8 7 6 5 5 5 5 5 9 1 -0 7 6 7 4 4 5 5 6 6 5 5 7 10 10 10 9 9 9 7 8 8 9 6 5 6 6 2 2 2 3 4 4 8 6
8 6 6 5 5 5 5 5 5 3 6 4 5 4 3 5 6 5 7 9 10 9 9 9 9 10 10 9 9 7 6 10 6 4 7 5 7 5 2 4 3 4 4 8 6
8 8 6 7 5 5 3 4 4 3 8 4 6 6 7 6 5 12 14 11 11 9 9 10 9 9 9 9 7 5 6 8 8 8 6 7 5 5 6 4 3 3 6 6 7
8 8 7 6 6 5 4 6 5 7 4 8 10 10 6 10 13 12 8 8 9 11 11 8 10 11 10 9 5 6 8 6 3 4 6 7 5 2 5 3 4 4 8 7 6
9 10 8 7 7 6 7 8 7 9 8 13 11 13 14 10 11 10 8 8 10 12 12 11 11 11 8 5 5 5 7 6 7 6 3 3 6 9 5 4 4 5 6 7 6
8 9 8 7 8 9 8 8 7 8 12 12 4 0 7 6 9 9 6 8 10 10 10 9 9 8 6 6 4 7 7 5 6 6 4 5 5 6 6 5 4 7 5 6 7
9 8 7 8 8 7 7 9 11 11 14 6 -2 4 5 8 8 5 5 6 8 11 9 8 9 9 9 8 8 7 8 6 6 7 4 5 9 6 7 5 5 5 6 7 7
7 7 8 7 7 7 8 11 9 15 10 3 4 4 5 5 6 2 -1 1 9 7 8 7 13 15 13 15 12 12 14 14 10 7 10 8 9 6 7 4 6 4 8 6 8
6 6 5 4 6 8 10 8 9 10 4 5 4 5 5 6 6 4 1 4 7 3 1 1 7 17 13 12 10 11 -1 9 11 15 16 13 9 7 6 5 7 3 8 6 8
6 4 4 5 6 8 10 9 8 7 4 3 4 5 5 4 4 3 5 6 6 2 2 2 4 6 3 6 9 11 8 11 17 16 21 13 9 7 5 6 7 4 8 7 9
6 6 5 5 6 6 8 11 8 3 6 4 5 5 3 3 3 4 5 4 4 6 4 3 2 3 7 6 9 7 13 12 8 17 18 13 8 9 6 5 6 6 6 8 9
7 4 6 6 5 6 6 11 7 4 6 3 6 4 3 3 4 4 5 5 4 3 3 4 1 2 2 7 1 5 10 11 12 5 12 12 11 8 7 5 4 6 5 9 9
9 7 7 7 6 6 5 6 8 6 4 4 5 3 4 4 4 5 5 5 5 3 4 8 2 2 2 3 2 5 6 15 17 17 11 12 9 9 7 6 4 4 3 11 10
Height
5874 5875 5876 5878 5880 5883 5884 5884 5884 5884 5885 5886 5887 5887 5886 5886 5886 5886 5886 5886 5887 5886 5884 5884 5886 5887 5888 5888 5887 5886 5885 5885 5885 5885 5884 5882 5882 5882 5880 5878 5876 5875 5872 5869 5865
5875 5877 5878 5879 5883 5884 5885 5885 5886 5887 5888 5888 5888 5889 5888 5889 5889 5889 5890 5890 5890 5889 5889 5888 5888 5889 5888 5888 5886 5886 5887 5886 5885 5883 5883 5882 5881 5879 5878 5876 5875 5872 5868 5865 5860
5876 5878 5880 5882 5884 5885 5886 5887 5888 5889 5890 5889 5890 5890 5891 5891 5892 5892 5893 5893 5893 5892 5892 5892 5891 5892 5890 5889 5888 5887 5887 5886 5885 5884 5882 5880 5878 5877 5875 5873 5871 5867 5863 5859 5855
5878 5880 5883 5884 5885 5887 5888 5889 5890 5890 5890 5891 5892 5892 5893 5893 5896 5895 5896 5896 5895 5894 5894 5894 5893 5893 5892 5891 5890 5889 5888 5886 5885 5883 5881 5879 5877 5876 5873 5870 5867 5864 5859 5855 5850
5880 5883 5884 5886 5887 5889 5890 5890 5891 5891 5891 5892 5893 5893 5894 5896 5897 5897 5898 5897 5897 5896 5895 5895 5894 5894 5893 5892 5891 5889 5888 5886 5884 5882 5880 5878 5876 5873 5871 5868 5865 5860 5855 5850 5845
5883 5885 5886 5888 5889 5891 5891 5891 5891 5891 5893 5894 5894 5895 5896 5899 5899 5899 5899 5899 5898 5897 5896 5895 5894 5894 5893 5892 5890 5888 5886 5885 5882 5880 5877 5874 5872 5869 5867 5864 5860 5854 5851 5846 5839
5885 5887 5888 5889 5891 5892 5891 5891 5891 5892 5894 5895 5896 5897 5898 5901 5901 5901 5901 5899 5899 5898 5897 5896 5895 5894 5893 5891 5889 5886 5885 5882 5880 5878 5877 5873 5869 5866 5863 5860 5855 5852 5847 5841 5835
5886 5888 5890 5890 5892 5892 5892 5892 5893 5894 5895 5896 5897 5899 5899 5901 5902 5901 5901 5900 5899 5898 5897 5896 5894 5893 5891 5889 5887 5886 5883 5880 5879 5876 5873 5870 5867 5863 5859 5856 5853 5847 5841 5834 5827
5887 5889 5890 5891 5893 5893 5893 5893 5894 5895 5896 5897 5898 5899 5901 5901 5902 5901 5900 5900 5898 5897 5896 5895 5893 5892 5890 5888 5886 5884 5881 5878 5877 5876 5872 5868 5865 5860 5855 5851 5846 5841 5835 5827 5818
5887 5889 5891 5892 5893 5894 5894 5895 5896 5896 5897 5897 5899 5901 5901 5901 5901 5900 5899 5899 5897 5896 5895 5894 5891 5889 5887 5885 5884 5883 5881 5878 5876 5873 5869 5865 5861 5855 5850 5846 5841 5835 5828 5821 5813
5887 5889 5891 5892 5894 5895 5896 5896 5899 5900 5898 5898 5899 5900 5900 5901 5901 5900 5899 5898 5897 5895 5893 5891 5890 5887 5885 5883 5881 5879 5876 5873 5870 5867 5865 5861 5857 5852 5847 5842 5836 5830 5823 5813 5801
5887 5889 5891 5892 5895 5896 5897 5897 5898 5900 5899 5899 5899 5900 5900 5901 5901 5900 5899 5899 5897 5895 5893 5891 5888 5886 5883 5880 5878 5875 5873 5871 5867 5864 5862 5859 5854 5848 5843 5838 5831 5823 5812 5802 5792
5887 5889 5891 5893 5896 5898 5898 5899 5898 5899 5899 5899 5899 5899 5900 5901 5901 5900 5899 5897 5896 5895 5892 5889 5887 5883 5881 5878 5875 5872 5870 5868 5866 5863 5859 5855 5853 5845 5839 5831 5823 5814 5804 5794 5783
5887 5889 5891 5893 5898 5898 5899 5899 5898 5899 5899 5901 5900 5900 5901 5901 5901 5900 5898 5898 5896 5893 5891 5889 5886 5882 5879 5877 5874 5871 5869 5866 5862 5859 5855 5850 5847 5839 5832 5825 5816 5807 5797 5786 5775
5887 5888 5891 5893 5896 5898 5900 5900 5900 5901 5900 5902 5901 5901 5901 5901 5901 5900 5898 5896 5894 5892 5890 5887 5884 5880 5878 5876 5873 5870 5866 5863 5859 5855 5851 5847 5841 5834 5827 5819 5810 5800 5789 5779 5767
5886 5887 5890 5892 5895 5897 5899 5899 5900 5902 5900 5901 5901 5900 5900 5899 5899 5898 5897 5895 5892 5890 5888 5885 5882 5879 5877 5874 5871 5867 5863 5860 5855 5852 5848 5843 5835 5829 5821 5814 5803 5793 5782 5771 5758
5884 5886 5889 5892 5894 5896 5898 5899 5901 5900 5901 5902 5901 5900 5899 5898 5897 5897 5895 5893 5891 5889 5885 5884 5880 5877 5875 5872 5868 5864 5861 5857 5853 5847 5842 5837 5831 5823 5815 5806 5796 5786 5775 5762 5749
5883 5886 5888 5891 5893 5895 5897 5899 5899 5900 5899 5900 5900 5899 5898 5898 5897 5897 5895 5893 5890 5888 5885 5882 5879 5877 5873 5870 5867 5862 5858 5852 5845 5841 5838 5833 5826 5818 5809 5799 5789 5779 5768 5755 5742
5881 5884 5887 5889 5892 5893 5895 5897 5898 5899 5899 5899 5899 5899 5898 5897 5897 5895 5894 5892 5890 5887 5885 5882 5879 5875 5871 5867 5865 5860 5855 5850 5844 5839 5832 5826 5819 5811 5802 5793 5784 5773 5761 5748 5733
5880 5883 5886 5888 5890 5892 5894 5895 5896 5897 5898 5899 5899 5899 5898 5897 5896 5894 5893 5892 5889 5887 5883 5880 5877 5874 5870 5866 5862 5857 5853 5847 5841 5831 5824 5819 5814 5804 5796 5787 5777 5767 5754 5739 5726
5879 5881 5884 5886 5888 5890 5892 5894 5895 5896 5897 5898 5898 5898 5898 5896 5895 5894 5894 5892 5889 5887 5883 5879 5877 5874 5869 5864 5859 5855 5849 5844 5838 5831 5821 5810 5809 5799 5791 5782 5772 5760 5745 5734 5720
5876 5880 5882 5884 5888 5889 5890 5892 5893 5895 5896 5898 5898 5898 5897 5896 5895 5894 5893 5891 5889 5886 5883 5880 5876 5872 5868 5863 5858 5853 5846 5840 5832 5825 5816 5808 5803 5793 5786 5776 5765 5752 5740 5727 5712
5874 5877 5880 5883 5885 5887 5889 5891 5892 5894 5895 5896 5897 5897 5896 5895 5895 5893 5892 5891 5888 5885 5882 5879 5876 5872 5867 5864 5857 5851 5844 5835 5827 5819 5813 5803 5797 5787 5780 5769 5758 5747 5734 5720 5704
5871 5874 5877 5880 5883 5885 5887 5889 5891 5893 5894 5895 5895 5896 5895 5894 5893 5892 5891 5890 5888 5885 5881 5878 5873 5869 5864 5859 5853 5847 5840 5832 5823 5814 5806 5800 5792 5782 5773 5763 5752 5741 5727 5712 5697
5867 5871 5874 5878 5881 5883 5885 5887 5888 5891 5892 5893 5894 5894 5893 5892 5892 5891 5890 5889 5887 5885 5881 5877 5873 5869 5863 5858 5851 5846 5839 5829 5820 5811 5802 5796 5787 5777 5767 5757 5747 5735 5721 5706 5691
5863 5867 5870 5873 5877 5880 5882 5885 5886 5888 5890 5890 5892 5892 5891 5890 5890 5889 5888 5887 5886 5883 5880 5877 5873 5868 5864 5857 5852 5845 5836 5827 5815 5806 5799 5789 5781 5771 5762 5752 5741 5728 5715 5700 5686
5858 5862 5866 5869 5873 5877 5879 5881 5884 5885 5887 5888 5888 5889 5888 5888 5887 5886 5885 5884 5883 5881 5877 5874 5870 5866 5861 5856 5849 5842 5832 5823 5813 5803 5794 5785 5776 5766 5757 5747 5735 5723 5709 5695 5681